TimeCST,TemperatureF,Dew PointF,Humidity,Sea Level PressureIn,VisibilityMPH,Wind Direction,Wind SpeedMPH,Gust SpeedMPH,PrecipitationIn,Events,Conditions,WindDirDegrees,DateUTC
12:52 AM,21.2,15.8,80,30.18,10.0,SSW,5.8,-,N/A,,Clear,210,2013-01-23 06:52:00
1:52 AM,21.9,17.1,82,30.21,8.0,SSW,10.4,-,N/A,,Clear,210,2013-01-23 07:52:00
2:52 AM,25.0,18.0,75,30.22,10.0,SW,11.5,-,N/A,,Clear,220,2013-01-23 08:52:00
3:52 AM,26.1,18.0,71,30.20,10.0,SW,6.9,-,N/A,,Clear,230,2013-01-23 09:52:00
4:52 AM,28.0,19.0,69,30.18,10.0,WSW,8.1,-,N/A,,Clear,240,2013-01-23 10:52:00
5:52 AM,27.0,19.0,72,30.18,10.0,WSW,8.1,-,N/A,,Clear,240,2013-01-23 11:52:00
6:52 AM,28.9,19.9,69,30.20,10.0,West,10.4,-,N/A,,Clear,260,2013-01-23 12:52:00
7:52 AM,30.9,21.0,67,30.20,10.0,WSW,11.5,-,N/A,,Clear,250,2013-01-23 13:52:00
8:52 AM,34.0,21.9,61,30.21,10.0,West,9.2,-,N/A,,Clear,260,2013-01-23 14:52:00
9:52 AM,37.9,19.9,48,30.20,10.0,WSW,8.1,-,N/A,,Clear,250,2013-01-23 15:52:00
10:52 AM,44.1,23.0,43,30.19,10.0,WSW,6.9,-,N/A,,Clear,240,2013-01-23 16:52:00
11:52 AM,50.0,19.0,29,30.19,10.0,West,5.8,-,N/A,,Clear,280,2013-01-23 17:52:00
12:52 PM,54.0,21.0,28,30.14,10.0,WSW,4.6,-,N/A,,Clear,240,2013-01-23 18:52:00
1:52 PM,57.9,21.0,24,30.12,10.0,SW,4.6,-,N/A,,Clear,220,2013-01-23 19:52:00
2:52 PM,63.0,19.9,19,30.10,10.0,Variable,3.5,-,N/A,,Clear,0,2013-01-23 20:52:00
3:52 PM,59.0,19.0,21,30.11,10.0,NNE,9.2,-,N/A,,Clear,20,2013-01-23 21:52:00
4:52 PM,52.0,24.1,34,30.14,10.0,NNE,10.4,-,N/A,,Clear,30,2013-01-23 22:52:00
5:52 PM,43.0,24.1,47,30.18,10.0,NNE,11.5,-,N/A,,Clear,20,2013-01-23 23:52:00
6:52 PM,39.2,24.8,56,30.16,10.0,NNE,15.0,-,N/A,,Clear,30,2013-01-24 00:52:00
7:52 PM,35.1,21.9,59,30.23,10.0,NE,15.0,-,N/A,,Clear,50,2013-01-24 01:52:00
8:52 PM,33.1,21.0,61,30.26,10.0,NE,13.8,-,N/A,,Clear,50,2013-01-24 02:52:00
9:52 PM,28.9,21.0,72,30.30,10.0,NNE,16.1,-,N/A,,Clear,30,2013-01-24 03:52:00
10:52 PM,28.0,19.9,72,30.29,10.0,NE,13.8,-,N/A,,Clear,40,2013-01-24 04:52:00
11:52 PM,26.1,19.9,78,30.30,10.0,NE,13.8,-,N/A,,Clear,40,2013-01-24 05:52:00